Regional Weather Roundup
Issued by NWS

Home | Current Version | Previous Version | Graphics & Text | Print | Product List | Glossary On
Versions: 1 2 3 4 5 6 7 8 9 10 11 12 13 14 15 16 17 18 19 20 21 22 23 24 25 26 27 28 29 30 31 32 33 34 35 36 37 38 39 40 41 42 43 44 45 46 47 48 49 50
000
ASUS43 KDMX 112307
RWRIA

WEATHER ROUNDUP FOR IOWA
NATIONAL WEATHER SERVICE DES MOINES IA
600 PM CDT FRI JUL 11 2014

NOTE: "FAIR" INDICATES FEW OR NO CLOUDS BELOW 12,000 FEET WITH NO
SIGNIFICANT WEATHER AND/OR OBSTRUCTIONS TO VISIBILITY.

* - THESE STATIONS ARE NOT NWS STATIONS...THUS NOT UNDER NWS
QUALITY CONTROL.  THEY ALSO DO NOT REPORT WEATHER SUCH
AS PRECIPITATION OR FOG.

IAZ001>003-012>014-020>022-031>034-043>046-120000-
   NORTHWEST IOWA

CITY           SKY/WX    TMP DP  RH WIND       PRES   REMARKS
CARROLL *      PTSUNNY   75  70  83 CALM      30.02R
CHEROKEE *     CLOUDY    75  72  88 SW3       30.01S
DENISON *      MOSUNNY   75  72  88 CALM      30.00S
LE MARS *      PTSUNNY   75  70  83 SE6       30.00F
ORANGE CITY *  SUNNY     79  70  73 S8        30.01S HX  81
SHELDON *      MOSUNNY   77  72  83 S10       30.00R
SIOUX CITY     CLOUDY    76  72  87 SE10      29.97F
SPENCER        PTSUNNY   79  69  71 SW10      30.00S HX  81
STORM LAKE *   PTSUNNY   73  72  94 SW5       30.03S
$$

IAZ055>058-069>071-079>083-090>094-120000-
   SOUTHWEST IOWA

CITY           SKY/WX    TMP DP  RH WIND       PRES   REMARKS
ATLANTIC *     MOSUNNY   79  75  89 N5        30.00R HX  82
AUDUBON *      SUNNY     79  73  83 CALM      30.03R HX  82
CLARINDA *     SUNNY     84  75  74 S5        29.98F HX  92
COUNCIL BLFS * SUNNY     81  77  89 VRB3      29.97S HX  88
CRESTON *      SUNNY     79  73  83 S12       30.00S HX  82
HARLAN  *      PTSUNNY   79  73  83 N3        30.04R HX  82
LAMONI         CLOUDY    80  72  76 S5        30.01S HX  84
RED OAK *      MOSUNNY   81  75  83 S6        29.97S HX  86
SHENANDOAH *   SUNNY     84  75  74 S5        29.97S HX  92
$$

IAZ047>049-059>061-072>074-084-120000-
   CENTRAL IOWA

CITY           SKY/WX    TMP DP  RH WIND       PRES   REMARKS
AMES           CLOUDY    74  69  85 E5        30.01F
ANKENY *       SUNNY     75  70  83 NE6       30.02R
CHARITON *     SUNNY     79  73  83 S5        30.01R HX  82
DES MOINES     CLOUDY    78  71  79 E7        30.01R HX  80
GRINNELL*      CLOUDY    75  68  78 SE3       30.04F
KNOXVILLE *    MOSUNNY   77  72  83 SE3       29.99F
MARSHALLTOWN   CLOUDY    76  69  79 SE7       30.02F
PELLA *        CLOUDY    77  72  83 CALM      30.03F
PERRY *        PTSUNNY   75  70  83 CALM      30.01F
$$

IAZ004>006-015-016-023>025-035-036-120000-
   NORTH CENTRAL IOWA

CITY           SKY/WX    TMP DP  RH WIND       PRES   REMARKS
ALGONA *       CLOUDY    79  70  73 SW12      30.01R HX  81
CLARION *      CLOUDY    75  68  78 S12       30.02R
ESTHERVILLE    MOSUNNY   80  69  69 S13       29.99S HX  83
FORT DODGE *   CLOUDY    73  66  78 S7        30.03R
MASON CITY     PTSUNNY   76  67  73 S13       30.03R
FOREST CITY *  CLOUDY    75  68  78 S8        30.01S
IOWA FALLS *   CLOUDY    75  68  78 S7        30.04S
$$

IAZ007>011-017>019-026>030-037>042-050>054-066-120000-
   NORTHEAST IOWA

CITY           SKY/WX    TMP DP  RH WIND       PRES   REMARKS
CEDAR RAPIDS   CLOUDY    77  67  71 S9        30.05R
CHARLES CITY * CLOUDY    75  66  73 S12G18    30.03S
CLINTON *      CLOUDY    75  64  69 SE10      30.07F
DECORAH *        N/A    N/A N/A N/A MISG        N/A
DUBUQUE        CLOUDY    75  66  73 SE10      30.06S
MONTICELLO *   MOSUNNY   77  68  73 S8G15     30.06R
OELWEIN *      CLOUDY    75  75 100 S10G18    30.06R
WATERLOO       CLOUDY    76  67  73 S9        30.02F
$$

IAZ064-065-067-068-078-120000-
   EAST CENTRAL IOWA

CITY           SKY/WX    TMP DP  RH WIND       PRES   REMARKS
DAVENPORT      CLOUDY    76  66  71 SE12      30.03F
IOWA CITY      CLOUDY    77  70  79 SW6       30.06R
MT. PLEASANT * CLOUDY    75  68  78 S7        30.02R
MUSCATINE *    SUNNY     77  68  73 S9G17     30.02R
QUAD CITIES    CLOUDY    76  66  71 SE10      30.02F
$$

IAZ062-063-075>077-085>089-095>099-120000-
   SOUTHEAST IOWA

CITY           SKY/WX    TMP DP  RH WIND       PRES   REMARKS
BURLINGTON     CLOUDY    78  69  73 SE10      30.03F HX  80
FAIRFIELD *    SUNNY     77  70  78 S10       30.03R
FORT MADISON * DRIZZLE   79  72  78 SE7G16    30.04F HX  82
KEOKUK *       SUNNY     79  72  78 SE12      30.02F HX  82
OSKALOOSA *      N/A     77  72  83 CALM      30.02S
CENTERVILLE *  SUNNY     77  75  94 SE3       30.03S
OTTUMWA        CLOUDY    76  72  87 S5        30.02R
WASHINGTON *   SUNNY     77  72  83 S8        30.03R
$$

ABBREVIATIONS USED IN REMARKS
   TC - TEMPERATURES IN CELSIUS
  WCI - WIND CHILL INDEX
   HX - HEAT INDEX
  VSB - VISIBILITY
$$



USA.gov is the U.S. government's official web portal to all federal, state and local government web resources and services.